[[{"header":{"parameterUnit":"m.s-1","parameterCategory":1,"la1":30.2991,"la2":30.254,"lo1":-89.0895,"lo2":-89.0444,"dy":0.0017,"dx":0.0017,"nx":28,"ny":28,"refTime":"2025-01-29T03:00:00:Z","depth":0,"parameterNumber":2,"parameterNumberName":"U-component_of_WINDS"},"data":[0,0,0,0,0,0,0,0,0,0,0,0,0,0,0,0,0,0,0,0,0,0,0,0,0,0,0,0,0,0,0,0,0,0,0,0,0,0,0,0,0,0,0,0,0,0,0,0,0,0,0,0,0,0,0,0,0,0,-4.5668,-4.5668,0,-4.5719,-4.572,-4.572,-4.5675,-4.5673,-4.5672,-4.567,-4.5721,-4.5724,-4.5727,0,0,0,0,0,0,0,0,0,0,0,0,0,-4.5532,-4.5534,-4.5668,-4.5669,-4.5669,-4.5719,-4.572,-4.572,-4.5676,-4.5673,-4.5671,-4.5669,-4.572,-4.5724,-4.5727,0,0,0,0,0,0,0,0,0,0,0,0,0,-4.5588,-4.5535,-4.5668,-4.5653,-4.5652,-4.5719,-4.572,-4.5721,-4.5676,-4.5673,-4.5671,-4.5668,-4.5719,-4.5723,-4.5728,-4.5812,0,0,-4.5742,-4.5744,0,0,0,0,0,0,0,0,-4.5584,-4.5593,-4.5654,-4.5654,-4.5653,-4.5688,-4.569,-4.5751,-4.5677,-4.5667,-4.567,-4.5667,-4.5712,-4.5717,-4.5733,-4.5814,-4.5816,-4.5742,-4.5745,-4.5747,-4.5748,0,0,0,0,0,0,0,-4.5581,-4.559,-4.5688,-4.5655,-4.5655,-4.5644,-4.5649,-4.5702,-4.5704,-4.5668,-4.5664,-4.5671,-4.5711,-4.5728,-4.5734,-4.5817,-4.5742,-4.5746,-4.5749,-4.5751,-4.5971,-4.5973,0,0,0,0,0,0,-4.5578,-4.5587,-4.5686,-4.569,-4.5611,-4.5648,-4.5654,-4.568,-4.5704,-4.5705,-4.5674,-4.5669,-4.5722,-4.5728,-4.5735,-4.5835,-4.5747,-4.5751,-4.5754,-4.5968,-4.5971,-4.5975,0,0,0,0,0,0,-4.5576,-4.5588,-4.5684,-4.5638,-4.5649,-4.5654,-4.5683,-4.5682,-4.5699,-4.5708,-4.5708,-4.569,-4.572,-4.5729,-4.5793,-4.5836,-4.5753,-4.5758,-4.5964,-4.5969,-4.5973,-4.6035,0,0,0,0,0,0,-4.5572,-4.5587,-4.5618,-4.5639,-4.5652,-4.5742,-4.5686,-4.5685,-4.5707,-4.5702,-4.5724,-4.5725,-4.5718,-4.5787,-4.5798,-4.5841,-4.5761,-4.596,-4.5966,-4.5971,-4.6029,-4.6041,-4.6052,0,0,0,0,0,-4.5567,-4.5633,-4.562,-4.5632,-4.5691,-4.5744,-4.5751,-4.5743,-4.5711,-4.5743,-4.5749,-4.5724,-4.583,-4.5794,-4.5806,-4.5851,-4.5957,-4.5964,-4.5971,-4.6024,-4.6039,-4.6051,0,0,0,0,0,0,-4.5617,-4.5636,-4.5621,-4.5696,-4.5719,-4.5736,-4.5776,-4.5759,-4.579,-4.5784,-4.5772,-4.5777,-4.5845,-4.5855,-4.5814,-4.5934,-4.5889,-4.5898,-4.5925,-4.5939,-4.595,-4.5945,-4.5765,0,0,0,0,0,-4.5637,-4.5678,-4.5692,-4.5757,-4.577,-4.5771,-4.5794,-4.5786,-4.5808,-4.5818,-4.5828,-4.5851,-4.589,-4.5915,-4.5951,-4.6031,-4.6036,-4.6069,-4.608,-4.6089,-4.6097,-4.6141,-4.6156,-4.5997,-4.5997,-4.5997,0,0,-4.5678,-4.5693,-4.572,-4.5768,-4.5784,-4.5827,-4.5779,-4.5827,-4.5859,-4.5825,-4.5886,-4.5895,-4.592,-4.5993,-4.6026,-4.6003,-4.6142,-4.6098,-4.6105,-4.6108,-4.615,-4.6165,-4.6178,-4.6002,-4.6001,-4.6,0,0,-4.5775,-4.5791,-4.5847,-4.5865,-4.5891,-4.5892,-4.5906,-4.5927,-4.5932,-4.5994,-4.597,-4.6008,-4.6074,-4.6093,-4.6111,-4.6218,-4.6197,-4.6231,-4.6288,-4.6331,-4.6344,-4.6355,-4.6393,-4.6406,-4.6239,-4.6239,-4.6239,0,-4.5822,-4.5886,-4.5877,-4.5927,-4.5949,-4.5922,-4.5978,-4.5997,-4.6033,-4.6049,-4.6024,-4.6108,-4.6122,-4.62,-4.6226,-4.6242,-4.6257,-4.6227,-4.6343,-4.6354,-4.6364,-4.64,-4.6414,-4.6243,-4.6243,-4.6242,-4.6242,0,-4.5943,-4.5988,-4.603,-4.6067,-4.6094,-4.6147,-4.6147,-4.6175,-4.6166,-4.617,-4.6234,-4.6251,-4.629,-4.6309,-4.6299,-4.6385,-4.637,-4.6345,-4.6298,-4.6383,-4.6416,-4.643,-4.6248,-4.6247,-4.6246,-4.6245,0,0,-4.607,-4.6103,-4.6119,-4.6136,-4.6164,-4.6199,-4.6252,-4.6291,-4.6315,-4.6343,-4.6386,-4.6444,-4.6421,-4.6442,-4.6435,-4.6473,-4.6556,-4.6442,-4.6442,-4.6462,-4.6653,-4.6671,-4.6687,-4.6543,-4.6546,-4.6548,-4.665,0,-4.6167,-4.6258,-4.6253,-4.6338,-4.638,-4.6357,-4.6402,-4.6425,-4.6431,-4.6467,-4.6474,-4.6515,-4.6481,-4.6494,-4.6531,-4.6538,-4.6594,-4.6531,-4.6583,-4.6585,-4.6576,-4.6705,-4.6724,-4.6819,-4.6663,-4.6666,-4.6667,0,-4.6292,-4.6324,-4.6414,-4.6438,-4.6455,-4.6496,-4.6533,-4.6568,-4.6594,-4.6596,-4.6621,-4.6608,-4.6661,-4.6616,-4.6689,-4.6646,-4.6668,-4.6675,-4.6679,-4.6682,-4.663,-4.671,-4.685,-4.6864,-4.6688,-4.6686,-4.6685,0,-4.6374,-4.6441,-4.6503,-4.6519,-4.6548,-4.6578,-4.6591,-4.6614,-4.6639,-4.6671,-4.6687,-4.6725,-4.6745,-4.6775,-4.6773,-4.674,-4.6848,-4.6802,-4.6851,-4.6851,-4.6873,-4.6871,-4.7016,-4.6889,-4.6889,-4.6889,-4.6888,0,-4.6482,-4.6538,-4.6541,-4.6579,-4.6642,-4.6636,-4.6698,-4.6708,-4.673,-4.677,-4.6752,-4.679,-4.6786,-4.6825,-4.6824,-4.6885,-4.6895,-4.6897,-4.6896,-4.6898,-4.6898,-4.691,-4.6903,-4.6892,-4.6892,-4.6891,-4.689,0,-4.6584,-4.6588,-4.6655,-4.6678,-4.6685,-4.673,-4.675,-4.6787,-4.6792,-4.6843,-4.6855,-4.6864,-4.6908,-4.691,-4.6961,-4.6961,-4.7035,-4.7027,-4.7026,-4.7024,-4.7073,-4.7068,-4.723,-4.7251,-4.7112,-4.7113,-4.7114,0,-4.6652,-4.6694,-4.6723,-4.6749,-4.6765,-4.6807,-4.6832,-4.6829,-4.6856,-4.689,-4.6923,-4.6967,-4.7001,-4.7073,-4.7084,-4.7124,-4.7116,-4.717,-4.7121,-4.7122,-4.7116,-4.7112,-4.7117,-4.7179,-4.718,-4.7182,-4.7183,0,-4.6772,-4.6772,-4.681,-4.6849,-4.688,-4.691,-4.6939,-4.6961,-4.6962,-4.6993,-4.7039,-4.7066,-4.7119,-4.7163,-4.7202,-4.7215,-4.7199,-4.7198,-4.7212,-4.7213,-4.7211,-4.7212,-4.7051,-4.7194,-4.7193,-4.7192,-4.7191,-4.7191,-4.6858,-4.6895,-4.6921,-4.6964,-4.6986,-4.7013,-4.7049,-4.706,-4.7098,-4.7141,-4.7138,-4.7189,-4.7215,-4.7266,-4.7284,-4.7324,-4.7305,-4.7324,-4.7329,-4.7333,-4.7338,-4.7206,-4.7331,-4.7331,-4.733,-4.733,-4.733,0,-4.6976,-4.6993,-4.7032,-4.7073,-4.7107,-4.7091,-4.7122,-4.7151,-4.7196,-4.7223,-4.7258,-4.7311,-4.7354,-4.7369,-4.741,-4.744,-4.7433,-4.745,-4.7447,-4.7451,-4.7353,-4.7337,-4.7455,-4.7455,-4.7455,-4.7455,-4.7455,-4.7455,-4.7042,-4.7104,-4.7108,-4.7181,-4.7197,-4.7247,-4.7266,-4.7292,-4.7313,-4.7374,-4.7409,-4.7419,-4.7441,-4.7485,-4.7523,-4.7527,-4.7542,-4.7563,-4.7563,-4.747,-4.7458,-4.7446,-4.7431,-4.7566,-4.7567,-4.7658,-4.7658,-4.7659]},{"header":{"parameterUnit":"m.s-1","parameterCategory":1,"la1":30.2991,"la2":30.254,"lo1":-89.0895,"lo2":-89.0444,"dy":0.0017,"dx":0.0017,"nx":28,"ny":28,"refTime":"2025-01-29T03:00:00:Z","depth":0,"parameterNumber":3,"parameterNumberName":"V-component_of_WINDS"},"data":[0,0,0,0,0,0,0,0,0,0,0,0,0,0,0,0,0,0,0,0,0,0,0,0,0,0,0,0,0,0,0,0,0,0,0,0,0,0,0,0,0,0,0,0,0,0,0,0,0,0,0,0,0,0,0,0,0,0,3.2022,3.2023,0,3.2123,3.2124,3.2125,3.2171,3.2171,3.2171,3.2171,3.2272,3.2274,3.2277,0,0,0,0,0,0,0,0,0,0,0,0,0,3.187,3.1873,3.2022,3.2023,3.2025,3.2123,3.2124,3.2125,3.2171,3.2171,3.2171,3.2171,3.2271,3.2274,3.2277,0,0,0,0,0,0,0,0,0,0,0,0,0,3.195,3.1874,3.2022,3.2059,3.2064,3.2122,3.2124,3.2126,3.2171,3.2171,3.2171,3.2171,3.227,3.2274,3.2278,3.2306,0,0,3.2291,3.2292,0,0,0,0,0,0,0,0,3.1946,3.1956,3.2052,3.2057,3.2062,3.2134,3.2108,3.2186,3.2171,3.213,3.2171,3.2171,3.2226,3.2234,3.2253,3.2311,3.2316,3.2291,3.2294,3.2295,3.2297,0,0,0,0,0,0,0,3.194,3.1952,3.2062,3.2054,3.206,3.2071,3.2083,3.2123,3.2178,3.2134,3.2137,3.2149,3.2228,3.2249,3.2256,3.2317,3.2291,3.2295,3.2297,3.2299,3.2408,3.2409,0,0,0,0,0,0,3.1928,3.1947,3.2059,3.2065,3.2002,3.2074,3.2087,3.2111,3.2177,3.2187,3.2149,3.215,3.2242,3.2251,3.2259,3.23,3.2295,3.2299,3.2302,3.2408,3.2408,3.2409,0,0,0,0,0,0,3.1925,3.1938,3.2055,3.2007,3.2023,3.2077,3.2104,3.2113,3.2134,3.2189,3.2199,3.2159,3.2242,3.2253,3.2296,3.2304,3.2301,3.2305,3.2407,3.2408,3.2409,3.238,0,0,0,0,0,0,3.192,3.1936,3.1947,3.2007,3.2025,3.2089,3.2104,3.2115,3.2141,3.2144,3.2201,3.2211,3.2243,3.2289,3.23,3.231,3.2308,3.2407,3.2408,3.2408,3.238,3.2379,3.2379,0,0,0,0,0,3.1915,3.1934,3.1948,3.1961,3.204,3.2089,3.21,3.2137,3.2141,3.2153,3.2189,3.2209,3.2301,3.2293,3.2305,3.2317,3.2406,3.2407,3.2408,3.2381,3.238,3.2379,0,0,0,0,0,0,3.1872,3.1942,3.1958,3.1997,3.2037,3.2097,3.2113,3.2134,3.2173,3.2174,3.2218,3.2231,3.227,3.2297,3.2287,3.235,3.2356,3.2359,3.2331,3.233,3.2329,3.2322,3.2312,0,0,0,0,0,3.1868,3.1902,3.1961,3.199,3.2009,3.2058,3.208,3.2106,3.2149,3.2166,3.2205,3.2245,3.2284,3.2308,3.2347,3.2385,3.2399,3.2399,3.2398,3.2397,3.24,3.2426,3.2427,3.2412,3.2412,3.2412,0,0,3.1858,3.19,3.1919,3.1982,3.2016,3.2052,3.2071,3.2107,3.2134,3.2171,3.2214,3.2244,3.2293,3.2334,3.2354,3.2358,3.2407,3.2398,3.2397,3.24,3.2427,3.2428,3.2429,3.2412,3.2412,3.2412,0,0,3.1859,3.1893,3.1923,3.1958,3.201,3.2042,3.2049,3.2107,3.2129,3.2173,3.2203,3.2236,3.23,3.2335,3.2361,3.2379,3.24,3.239,3.2386,3.2411,3.2412,3.2414,3.2423,3.2425,3.2393,3.2393,3.2393,0,3.184,3.1895,3.1935,3.1971,3.1999,3.2036,3.2067,3.2098,3.2159,3.2178,3.2183,3.2268,3.2302,3.2354,3.2359,3.2378,3.2389,3.2384,3.2409,3.2411,3.2412,3.2422,3.2425,3.2391,3.2392,3.2392,3.2392,0,3.1871,3.1908,3.1926,3.1987,3.2017,3.2049,3.2096,3.2122,3.2145,3.2178,3.2224,3.2268,3.2318,3.2332,3.2354,3.2388,3.2389,3.24,3.2407,3.2412,3.2422,3.2425,3.239,3.239,3.239,3.2391,0,0,3.1845,3.1931,3.1937,3.1967,3.2029,3.2059,3.2094,3.2145,3.2167,3.2209,3.2241,3.2297,3.231,3.2339,3.2366,3.2387,3.2403,3.2397,3.2399,3.2398,3.2446,3.2438,3.2442,3.2417,3.2417,3.2418,3.2443,0,3.1857,3.1923,3.1962,3.2013,3.205,3.2087,3.2119,3.2161,3.2193,3.2229,3.2265,3.2305,3.2316,3.2335,3.2358,3.2396,3.2413,3.2395,3.2449,3.245,3.2437,3.2446,3.2438,3.2459,3.2447,3.2447,3.2448,0,3.1878,3.1921,3.1976,3.2038,3.2055,3.2082,3.2134,3.2167,3.2217,3.2239,3.2274,3.2302,3.2343,3.2346,3.2404,3.2391,3.2415,3.2438,3.244,3.2447,3.245,3.2456,3.2466,3.247,3.2453,3.2453,3.2452,0,3.1857,3.1929,3.1973,3.1997,3.2069,3.2088,3.2119,3.2168,3.2197,3.2242,3.2261,3.2309,3.2336,3.2373,3.2414,3.2412,3.2469,3.2475,3.249,3.2489,3.2501,3.25,3.2517,3.2513,3.2513,3.2513,3.2513,0,3.1866,3.1899,3.1965,3.1992,3.2031,3.2076,3.2113,3.2147,3.2191,3.2226,3.2261,3.2293,3.2344,3.2383,3.2415,3.246,3.2471,3.2491,3.25,3.2489,3.2487,3.2507,3.2507,3.2514,3.2514,3.2514,3.2514,0,3.185,3.1895,3.1945,3.2011,3.2028,3.2054,3.211,3.2138,3.2174,3.2218,3.223,3.2286,3.2333,3.2378,3.2441,3.2463,3.2509,3.2519,3.2493,3.2498,3.2511,3.251,3.2543,3.2551,3.254,3.254,3.254,0,3.1853,3.1879,3.1949,3.1976,3.2006,3.2048,3.2079,3.2125,3.2156,3.2217,3.2238,3.2289,3.2332,3.2407,3.2453,3.2502,3.2515,3.2523,3.2522,3.2512,3.2518,3.2517,3.2521,3.2522,3.2522,3.2522,3.2522,0,3.1855,3.1877,3.192,3.1973,3.2009,3.2052,3.2096,3.2115,3.2171,3.2204,3.2254,3.2288,3.2355,3.2405,3.2461,3.2493,3.2518,3.2522,3.2529,3.2519,3.2504,3.2515,3.2493,3.2521,3.2521,3.2521,3.2521,3.2521,3.185,3.1877,3.1931,3.1979,3.2018,3.2059,3.209,3.2131,3.2174,3.2233,3.2258,3.231,3.2362,3.2439,3.2472,3.2513,3.2519,3.2527,3.253,3.2532,3.2531,3.2496,3.2523,3.2523,3.2523,3.2523,3.2524,0,3.1856,3.1894,3.1937,3.2,3.2038,3.2059,3.211,3.2141,3.2187,3.2234,3.2277,3.2337,3.2387,3.2438,3.2492,3.2516,3.2529,3.2529,3.2528,3.2536,3.2522,3.2512,3.2518,3.2518,3.2518,3.2518,3.2518,3.2518,3.1864,3.1911,3.1941,3.2009,3.2047,3.2099,3.2127,3.2166,3.2204,3.227,3.2313,3.2347,3.2396,3.2455,3.2503,3.2517,3.2536,3.2533,3.255,3.2536,3.2536,3.2536,3.2528,3.2536,3.2536,3.2561,3.2561,3.2561]}]]